Погода в Могилёве-Подольском

Украина / Винницкая область     48°26′27″N   27°48′07″E
темп.,
°C
ветер,
м/с
пор.,
м/с
влажн.,
%
обл.,
%
осадки,
мм/ч
давл.,
гПа
погр.,
м
9 марта, вт
вт923:00−2зсз377720 0.0 1020384
02:00−2зсз357910 0.0 1021282
05:00−2сз36770 0.0 1020539
08:00−2сз47680 0.0 1021605
11:00+1сз455532 0.0 10221276
14:00+2сз345366 0.2 10221384
17:00+1ссз335791 0.1 1022989
20:00−1св227046 0.1 102450
10 марта, ср
ср1023:00−2в247439 0.0 1024171
02:00−2вюв467268 0.0 1025356
05:00−2юв4771100 0.0 1024492
08:00−1юв5771100 0.0 1024652
11:00−1юв6980100 0.1 1023726
14:000юв6872100 0.4 1023938
17:00−1вюв5883100 0.1 1022715
20:00−1вюв5971100 0.3 1024724
11 марта, чт
чт1123:00−2вюв5861100 0.0 1025665
02:00−2юв4761100 0.0 1025583
05:00−3вюв365986 0.0 1025429
08:00−2вюв465493 0.0 1027589
11:000юв454591 0.0 1027917
14:00+2юв454255 0.0 10251195
17:00+1юв45470 0.0 1024962
20:00−1юв49581 0.0 1025267
12 марта, пт
пт1223:00−1юв5115298 0.0 1025501
02:00−1ююв6125699 0.0 1024562
05:00−1ююв8135799 0.0 1022746
08:00−1ююв91465100 0.0 1021725
11:00+2ю91463100 0.0 1020839
14:00+4ю71165100 0.1 10181045
17:00+3ююв4981100 0.2 1018409
20:00+3ююв3585100 0.6 1020101
13 марта, сб
сб1323:00+2юв1288100 0.0 102023
02:00+2ююв2394100 0.0 102094
05:00+1ююв2296100 0.0 102025
08:00+2юв359796 0.0 1020231
11:00+6ююв578395 0.0 1020642
14:00+7ю577498 0.1 1018813
17:00+7ююв4770100 0.0 1016699
20:00+6ююв3984100 0.6 1016630